Location: San Martino di Castrozza
(46.2667°N, 11.8000°E)
Time: 14:53:37
(UTC+00:00)

SL-27 R/B - Pass Details

Date: 23 April 2021
Orbit: 419 x 467 km, 74.7° (Epoch: 12 May)

Event Time Altitude Azimuth Distance (km) Brightness Sun altitude
Rises 02:58:13 0° 340° (NNW) 2,390 6.3 -12.3°
Reaches altitude 10° 03:00:18 10° 343° (NNW) 1,516 5.3 -12.0°
Maximum altitude 03:03:36 75° 68° (ENE) 441 2.5 -11.5°
Drops below altitude 10° 03:06:53 10° 155° (SSE) 1,498 5.0 -11.0°
Sets 03:08:55 0° 157° (SSE) 2,358 6.0 -10.7°
